Content
SEND FEEDBACK

Daily
Averages
Monthly
Summary
Canada

STE. DOROTHEE, QUEBEC


Home > North America > Canada > Quebec
Elevation: 75 feet     Latitude: 45 31N     Longitude: 73 47W

WEATHER
 
SELECT A DAY
Number of Records: 203,406;   Date Range: 1/1/95 - 12/19/14
 
SHARE

PRINT THIS DATA

[ ← Previous Day ]
WEATHER ALMANAC - MARCH 19, 2013
[ Next Day → ]
[ °C ]   °F
Weather ElementAverageHighLow
Temperature28.2 °F32 °F (2:19 pm)24.8 °F (1:00 am)
Dewpoint24.6 °F29 °F (2:00 pm)8.6 °F (1:00 am)
Humidity87.3 %100 % (4:00 am)33 % (2:00 am)
Barometer29.86 in30.06 in (1:00 am)29.73 in (10:29 pm)
Wind Speed12.2 mph18.4 mph (5:56 am)
Wind Gust24.2 mph (6:00 am)
Weather ElementAverage
Visibility2 mi
Wind DirectionENE (72.6 °)

Weather ElementTotal
Precipitation---
Heating Degree Days36.6 (Base 65)
Averaged from 57 records on March 19, 2013
WEATHER CONDITIONS BREAKOUT
WIND DIRECTION BREAKOUT
WEATHER BY HOUR - MARCH 19, 2013
[ °C ]   °F
Local TimeTemperatureDewpointHumidityBarometerVisibilityWind DirectionWind SpeedGust SpeedPrecipitationEventsConditions
1:00 AM24.8 °F8.6 °F50 %30.06 in15.0 miNE (50°)15.0 mphOvercast
1:44 AM26.6 °F8.6 °F47 %30.05 in10.0 miENE (70°)4.6 mphSnowLight Snow
1:52 AM28.4 °F10.4 °F47 %30.06 in8.0 miESE (110°)12.7 mphSnowLight Snow
1:54 AM28.4 °F10.4 °F47 %30.06 in8.0 miESE (110°)12.7 mphSnowLight Snow
2:00 AM28.0 °F10.0 °F33 %30.05 in6.0 miESE (110°)11.5 mphSnowLight Snow
2:00 AM26.6 °F10.4 °F51 %30.05 in6.0 miEast (100°)10.4 mph19.6 mphSnowLight Snow
2:05 AM26.6 °F15.8 °F64 %30.05 in2.5 miESE (120°)11.5 mph19.6 mphSnowLight Snow
2:24 AM24.8 °F19.4 °F80 %30.05 in2.0 miEast (80°)9.2 mphSnowLight Snow
2:57 AM24.8 °F23.0 °F93 %30.01 in1.0 miENE (60°)11.5 mphSnowLight Snow
3:00 AM24.8 °F23.0 °F93 %30.01 in1.0 miENE (60°)12.7 mphSnowLight Snow
3:39 AM24.8 °F23.0 °F93 %29.99 in1.0 miENE (60°)11.5 mphSnowLight Snow
4:00 AM24.8 °F24.8 °F100 %29.98 in0.8 miENE (70°)13.8 mphSnowLight Snow
5:00 AM26.6 °F24.8 °F93 %29.94 in0.8 miENE (70°)16.1 mphSnowLight Snow
5:40 AM26.6 °F24.8 °F93 %29.94 in1.2 miEast (80°)16.1 mph23.0 mphSnowLight Snow
5:56 AM26.6 °F24.8 °F93 %29.93 in0.8 miENE (70°)18.4 mphSnowLight Snow
6:00 AM26.6 °F24.8 °F93 %29.93 in0.8 miENE (70°)15.0 mph24.2 mphSnowHeavy Snow
7:00 AM26.6 °F24.8 °F93 %29.91 in0.6 miENE (70°)18.4 mph24.2 mphSnowLight Snow
7:19 AM26.6 °F24.8 °F93 %29.91 in0.8 miEast (80°)16.1 mphSnowLight Snow
8:00 AM27.0 °F26.0 °F92 %29.90 in1.0 miEast (80°)15.0 mphSnowLight Snow
8:00 AM26.6 °F24.8 °F93 %29.90 in0.8 miENE (70°)15.0 mph20.7 mphSnowLight Snow
8:30 AM26.6 °F26.6 °F100 %29.89 in0.6 miEast (80°)15.0 mphSnowLight Snow
9:00 AM28.4 °F26.6 °F93 %29.89 in0.5 miEast (80°)12.7 mph19.6 mphSnowLight Snow
9:11 AM28.4 °F26.6 °F93 %29.89 in0.8 miENE (70°)12.7 mphSnowLight Snow
10:00 AM28.4 °F26.6 °F93 %29.88 in0.5 miENE (60°)12.7 mphSnowSnow
10:06 AM28.4 °F26.6 °F93 %29.88 in0.2 miENE (60°)15.0 mphSnowSnow
10:41 AM28.4 °F26.6 °F93 %29.87 in0.4 miENE (70°)11.5 mph18.4 mphSnowSnow
11:00 AM28.4 °F26.6 °F93 %29.87 in0.5 miENE (70°)13.8 mphSnowSnow
11:21 AM28.4 °F26.6 °F93 %29.87 in0.8 miENE (70°)12.7 mphSnowLight Snow
11:38 AM30.2 °F28.4 °F93 %29.86 in0.5 miEast (80°)11.5 mphSnowSnow
12:00 PM30.2 °F28.4 °F93 %29.85 in0.8 miEast (80°)11.5 mph18.4 mphSnowLight Snow
12:31 PM30.2 °F28.4 °F93 %29.84 in0.5 miEast (80°)11.5 mphSnowLight Snow
1:00 PM30.2 °F28.4 °F93 %29.83 in0.6 miEast (90°)10.4 mphSnowLight Snow
1:25 PM30.2 °F28.4 °F93 %29.82 in0.8 miEast (80°)12.7 mph18.4 mphSnowLight Snow
2:00 PM31.0 °F29.0 °F88 %29.81 in1.0 miEast (90°)10.4 mphSnowLight Snow
2:00 PM30.2 °F28.4 °F93 %29.81 in1.0 miEast (80°)10.4 mphSnowLight Snow
2:19 PM32.0 °F28.4 °F87 %29.79 in3.0 miEast (90°)11.5 mphSnowLight Snow
3:00 PM32.0 °F28.4 °F87 %29.78 in2.5 miEast (100°)11.5 mphSnowLight Snow
4:00 PM30.2 °F28.4 °F93 %29.77 in2.0 miEast (80°)9.2 mphSnowLight Snow
5:00 PM30.2 °F28.4 °F93 %29.76 in2.5 miEast (80°)11.5 mphSnowLight Snow
5:20 PM30.2 °F28.4 °F93 %29.75 in1.0 miEast (80°)13.8 mphSnowLight Snow
5:29 PM30.2 °F28.4 °F93 %29.75 in0.6 miEast (80°)11.5 mphSnowLight Snow
5:48 PM30.2 °F28.4 °F93 %29.75 in1.0 miENE (70°)11.5 mphSnowLight Snow
6:00 PM30.2 °F28.4 °F93 %29.75 in1.0 miENE (70°)10.4 mphSnowLight Snow
6:11 PM30.2 °F28.4 °F93 %29.75 in3.0 miENE (70°)10.4 mphSnowLight Snow
6:23 PM30.2 °F28.4 °F93 %29.75 in1.5 miEast (80°)10.4 mphSnowLight Snow
6:38 PM30.2 °F28.4 °F93 %29.75 in1.0 miEast (80°)11.5 mphSnowLight Snow
7:00 PM30.2 °F28.4 °F93 %29.75 in1.0 miENE (70°)11.5 mphSnowLight Snow
7:32 PM30.2 °F28.4 °F93 %29.74 in1.2 miENE (70°)11.5 mphSnowLight Snow
8:00 PM29.0 °F27.0 °F90 %29.75 in1.0 miENE (60°)11.5 mphSnowLight Snow
8:00 PM28.4 °F26.6 °F93 %29.75 in1.2 miENE (70°)10.4 mphSnowLight Snow
8:15 PM28.4 °F26.6 °F93 %29.75 in1.0 miENE (60°)11.5 mphSnowLight Snow
9:00 PM28.4 °F26.6 °F93 %29.75 in1.0 miNE (50°)10.4 mphSnowLight Snow
9:25 PM28.4 °F26.6 °F93 %29.75 in1.2 miNE (50°)9.2 mphSnowLight Snow
10:00 PM26.6 °F26.6 °F100 %29.74 in1.2 miNE (50°)11.5 mphSnowLight Snow
10:29 PM26.6 °F24.8 °F93 %29.73 in2.0 miNNE (30°)12.7 mphSnowLight Snow
11:00 PM26.6 °F24.8 °F93 %29.73 in2.2 miNorth (10°)11.5 mphSnowLight Snow
11:24 PM26.6 °F24.8 °F93 %29.73 in3.0 miNorth (10°)10.4 mphSnowLight Snow
Hourly data recorded from CYUL, located miles away from Ste. Dorothee, Quebec







STORIES FROM OUR PARTNERS